TimeMDT,TemperatureF,Dew PointF,Humidity,Sea Level PressureIn,VisibilityMPH,Wind Direction,Wind SpeedMPH,Gust SpeedMPH,PrecipitationIn,Events,Conditions,WindDirDegrees,DateUTC
12:15 AM,50.0,50.0,100,29.88,10.0,ESE,9.2,-,N/A,,Overcast,110,2013-05-17 06:15:00
12:35 AM,50.0,50.0,100,29.87,10.0,ESE,6.9,-,N/A,Rain,Light Rain,110,2013-05-17 06:35:00
12:55 AM,50.0,50.0,100,29.87,10.0,ESE,8.1,-,N/A,Rain,Light Rain,110,2013-05-17 06:55:00
1:15 AM,50.0,50.0,100,29.86,10.0,East,6.9,-,N/A,,Overcast,90,2013-05-17 07:15:00
1:35 AM,50.0,50.0,100,29.86,10.0,East,6.9,-,N/A,,Overcast,100,2013-05-17 07:35:00
1:55 AM,50.0,50.0,100,29.86,10.0,ESE,8.1,-,N/A,,Overcast,110,2013-05-17 07:55:00
2:15 AM,50.0,50.0,100,29.85,10.0,ESE,10.4,-,N/A,,Overcast,110,2013-05-17 08:15:00
2:35 AM,50.0,50.0,100,29.85,10.0,ESE,8.1,-,N/A,,Overcast,110,2013-05-17 08:35:00
2:55 AM,50.0,50.0,100,29.85,10.0,ESE,8.1,-,0.01,Rain,Light Rain,110,2013-05-17 08:55:00
3:15 AM,50.0,50.0,100,29.85,9.0,ESE,8.1,-,N/A,Rain,Light Rain,110,2013-05-17 09:15:00
3:35 AM,50.0,50.0,100,29.85,9.0,ESE,5.8,-,N/A,Rain,Light Rain,110,2013-05-17 09:35:00
3:55 AM,50.0,50.0,100,29.85,10.0,ESE,9.2,-,N/A,Rain,Light Rain,120,2013-05-17 09:55:00
4:15 AM,50.0,50.0,100,29.85,8.0,ESE,9.2,-,N/A,,Overcast,120,2013-05-17 10:15:00
4:35 AM,50.0,50.0,100,29.85,7.0,SE,8.1,-,N/A,,Overcast,130,2013-05-17 10:35:00
4:55 AM,50.0,50.0,100,29.86,8.0,ESE,4.6,-,N/A,,Overcast,110,2013-05-17 10:55:00
5:15 AM,50.0,50.0,100,29.86,8.0,East,4.6,-,N/A,,Overcast,100,2013-05-17 11:15:00
5:35 AM,50.0,50.0,100,29.86,7.0,ESE,5.8,-,N/A,,Overcast,110,2013-05-17 11:35:00
6:15 AM,50.0,50.0,100,29.87,8.0,ESE,8.1,-,N/A,Rain,Light Rain,120,2013-05-17 12:15:00
6:35 AM,50.0,50.0,100,29.88,7.0,SE,6.9,-,0.01,Rain,Light Rain,130,2013-05-17 12:35:00
6:55 AM,50.0,50.0,100,29.88,6.0,SE,5.8,-,0.01,Rain,Light Rain,140,2013-05-17 12:55:00
7:15 AM,50.0,50.0,100,29.88,6.0,SSE,4.6,-,N/A,Rain,Light Rain,150,2013-05-17 13:15:00
7:35 AM,51.8,51.8,100,29.88,6.0,SE,4.6,-,N/A,Rain,Light Rain,130,2013-05-17 13:35:00
7:55 AM,51.8,51.8,100,29.87,7.0,ESE,5.8,-,N/A,,Overcast,120,2013-05-17 13:55:00
8:15 AM,51.8,51.8,100,29.88,7.0,ESE,4.6,-,N/A,,Overcast,120,2013-05-17 14:15:00
8:35 AM,53.6,51.8,94,29.88,8.0,SE,5.8,-,N/A,,Overcast,130,2013-05-17 14:35:00
8:55 AM,53.6,53.6,100,29.88,9.0,South,3.5,-,N/A,,Overcast,190,2013-05-17 14:55:00
9:15 AM,53.6,51.8,94,29.88,8.0,Calm,Calm,-,N/A,Rain,Light Rain,0,2013-05-17 15:15:00
9:35 AM,55.4,51.8,88,29.88,9.0,Calm,Calm,-,N/A,,Overcast,0,2013-05-17 15:35:00
9:55 AM,55.4,51.8,88,29.88,10.0,Calm,Calm,-,N/A,Rain,Light Rain,0,2013-05-17 15:55:00
10:15 AM,55.4,53.6,94,29.89,10.0,South,3.5,-,N/A,,Overcast,170,2013-05-17 16:15:00
10:35 AM,55.4,53.6,94,29.88,7.0,ESE,4.6,-,N/A,Rain,Light Rain,110,2013-05-17 16:35:00
10:55 AM,55.4,53.6,94,29.88,8.0,Calm,Calm,-,N/A,,Mostly Cloudy,0,2013-05-17 16:55:00
11:15 AM,57.2,53.6,88,29.88,9.0,Calm,Calm,-,N/A,Rain,Light Rain,0,2013-05-17 17:15:00
11:35 AM,57.2,53.6,88,29.88,10.0,Calm,Calm,-,N/A,Rain,Light Rain,0,2013-05-17 17:35:00
11:55 AM,57.2,53.6,88,29.88,10.0,Calm,Calm,-,N/A,,Overcast,0,2013-05-17 17:55:00
12:15 PM,59.0,53.6,82,29.88,10.0,Calm,Calm,-,N/A,Rain,Light Rain,0,2013-05-17 18:15:00
12:35 PM,59.0,53.6,82,29.87,10.0,Calm,Calm,-,N/A,Rain,Light Rain,0,2013-05-17 18:35:00
1:15 PM,62.6,53.6,72,29.87,10.0,Calm,Calm,-,N/A,Rain,Light Rain,0,2013-05-17 19:15:00
1:35 PM,64.4,53.6,68,29.86,10.0,Calm,Calm,-,N/A,,Mostly Cloudy,0,2013-05-17 19:35:00
1:55 PM,64.4,53.6,68,29.86,10.0,Calm,Calm,-,N/A,,Mostly Cloudy,0,2013-05-17 19:55:00
2:15 PM,66.2,53.6,64,29.85,10.0,NNW,4.6,-,N/A,,Clear,340,2013-05-17 20:15:00
2:35 PM,66.2,53.6,64,29.85,10.0,WNW,3.5,-,N/A,,Clear,290,2013-05-17 20:35:00
2:55 PM,66.2,53.6,64,29.84,10.0,Calm,Calm,-,N/A,,Clear,0,2013-05-17 20:55:00
3:15 PM,66.2,51.8,60,29.83,10.0,North,4.6,-,N/A,,Clear,10,2013-05-17 21:15:00
3:35 PM,68.0,50.0,52,29.83,10.0,East,3.5,-,N/A,,Partly Cloudy,100,2013-05-17 21:35:00
3:55 PM,68.0,53.6,60,29.83,10.0,East,4.6,-,N/A,,Partly Cloudy,80,2013-05-17 21:55:00
4:15 PM,68.0,51.8,56,29.83,10.0,NNW,3.5,-,N/A,,Partly Cloudy,340,2013-05-17 22:15:00
4:35 PM,69.8,53.6,56,29.83,10.0,North,6.9,-,N/A,,Scattered Clouds,350,2013-05-17 22:35:00
4:55 PM,68.0,53.6,60,29.82,10.0,NE,9.2,-,N/A,,Scattered Clouds,40,2013-05-17 22:55:00
5:15 PM,68.0,51.8,56,29.82,10.0,NNE,5.8,-,N/A,,Partly Cloudy,20,2013-05-17 23:15:00
5:35 PM,68.0,51.8,56,29.81,10.0,NE,11.5,-,N/A,,Clear,40,2013-05-17 23:35:00
5:55 PM,66.2,51.8,60,29.81,10.0,NE,9.2,-,N/A,,Clear,40,2013-05-17 23:55:00
6:15 PM,66.2,51.8,60,29.81,10.0,NNE,11.5,-,N/A,,Clear,30,2013-05-18 00:15:00
6:35 PM,66.2,51.8,60,29.81,10.0,NNE,9.2,-,N/A,,Clear,30,2013-05-18 00:35:00
6:55 PM,66.2,53.6,64,29.82,10.0,NE,11.5,-,N/A,,Partly Cloudy,40,2013-05-18 00:55:00
7:15 PM,64.4,53.6,68,29.82,10.0,NE,10.4,-,N/A,,Partly Cloudy,50,2013-05-18 01:15:00
7:35 PM,64.4,53.6,68,29.83,10.0,NNE,6.9,-,N/A,Rain,Light Rain,30,2013-05-18 01:35:00
7:55 PM,62.6,53.6,72,29.81,10.0,NNE,10.4,-,N/A,,Mostly Cloudy,20,2013-05-18 01:55:00
8:15 PM,60.8,53.6,77,29.81,10.0,NNE,9.2,-,N/A,Rain,Light Rain,30,2013-05-18 02:15:00
8:35 PM,59.0,55.4,88,29.81,10.0,North,9.2,-,N/A,,Overcast,10,2013-05-18 02:35:00
8:55 PM,59.0,55.4,88,29.83,10.0,NNE,8.1,-,N/A,,Overcast,30,2013-05-18 02:55:00
9:15 PM,59.0,55.4,88,29.83,10.0,NNE,6.9,-,N/A,Rain,Light Rain,20,2013-05-18 03:15:00
9:35 PM,57.2,55.4,94,29.83,10.0,NNE,5.8,-,N/A,Rain-Thunderstorm,Light Thunderstorms and Rain,30,2013-05-18 03:35:00
9:55 PM,57.2,55.4,94,29.84,10.0,NNW,4.6,-,N/A,Rain,Light Rain,330,2013-05-18 03:55:00
10:15 PM,57.2,55.4,94,29.85,1.8,North,19.6,-,0.18,Rain-Thunderstorm,Heavy Thunderstorms and Rain,350,2013-05-18 04:15:00
10:35 PM,57.2,57.2,100,29.86,1.5,NNE,15.0,-,0.60,Rain-Thunderstorm,Thunderstorms and Rain,30,2013-05-18 04:35:00
10:55 PM,55.4,55.4,100,29.81,4.0,NNE,12.7,-,0.80,Rain-Thunderstorm,Light Rain,20,2013-05-18 04:55:00
11:15 PM,55.4,55.4,100,29.81,10.0,ENE,6.9,-,N/A,Thunderstorm,Thunderstorm,70,2013-05-18 05:15:00
11:35 PM,57.2,57.2,100,29.80,10.0,NNE,5.8,-,N/A,,Partly Cloudy,20,2013-05-18 05:35:00
11:55 PM,57.2,57.2,100,29.80,10.0,NE,4.6,-,N/A,,Clear,40,2013-05-18 05:55:00